Tracking 23581 objects as of 27-Jul-2021
HD Live streaming from Space Station
objects crossing your sky now

BREEZE-M R/B

Track BREEZE-M R/B now!
10-day predictions


NORAD ID: 28944
Int'l Code: 2006-006B
Perigee: 1,062.4 km
Apogee: 14,809.8 km
Inclination: 50.7 °
Period: 283.8 minutes
Semi major axis: 14307 km
RCS: 13.6373 m2 (large)
Launch date: February 28, 2006
Source: Commonwealth of Independent States (former USSR) (CIS)
Launch site: TYURATAM MISSILE AND SPACE COMPLEX (TTMTR)

Note: This is a ROCKET BODY
aabbcc
Your satellite tracking list
Your tracking list is empty




NASA's NSSDC Master Catalog

Two Line Element Set (TLE):
1 28944U 06006B   21207.10565603 -.00000002  00000-0  00000-0 0  9990
2 28944  50.6735 131.6608 4804386 316.4919  19.9043  5.07310224267214
Source of the keplerian elements: AFSPC